Location: Fazenda Monte Alegre
(4.8500°S, 38.0333°W)
Time: 16:34:27
(UTC+00:00)

SeaSat 1 - Pass Details

Date: 24 September 2020
Orbit: 744 x 748 km, 108.0° (Epoch: 24 October)

Event Time Altitude Azimuth Distance (km) Brightness Sun altitude
Rises 21:13:32 0° 169° (S) 3,186 5.6 -12.3°
Reaches altitude 10° 21:15:52 10° 175° (S) 2,259 4.9 -12.9°
Maximum altitude 21:20:33 46° 248° (WSW) 996 3.6 -14.0°
Drops below altitude 10° 21:25:13 10° 320° (NW) 2,249 5.4 -15.2°
Sets 21:27:33 0° 326° (NNW) 3,170 6.1 -15.8°
